FW3705 Peabody MA US current weather conditions

sailwx.info

Wind from 276

Air temperature -0.0° C
Dewpoint -3.2° C

Last reported at 2019-Dec-11 19:01 UTC.
Time now 2019-Dec-11 20:05 UTC

Location: N 42°32' W 070°55'.
View on Google Maps.

See reports from other nearby stations

  
Tides and Currents Weather Stations Pressure Air Temp Water Temp Dewpoint Dewpoint Depression Visibility Wind Speed Wind Dir Waves Ship Positions
date/time (UTC)wind fromknots sea level pressurealtimeterstation pressurevisibilityair tempwater tempwave heightnotes
2019-Dec-11 19:01 276 -0.0
2019-Dec-11 18:48 263 -0.0
2019-Dec-11 18:32 262 -0.0
2019-Dec-11 18:17 272 0.6
2019-Dec-11 18:03 267 0.6
2019-Dec-11 17:46 267 -0.0
2019-Dec-11 17:33 267 -0.6
2019-Dec-11 17:17 296 -0.0
2019-Dec-11 17:01 258 -0.0
2019-Dec-11 16:47 255 -0.6
2019-Dec-11 16:32 255 -1.1
2019-Dec-11 16:17 255 -1.1
2019-Dec-11 16:03 255 -1.1
2019-Dec-11 15:46 255 -1.1
2019-Dec-11 15:31 255 -1.1
2019-Dec-11 15:18 256 -1.1
2019-Dec-11 15:01 256 -1.1
2019-Dec-11 14:47 256 -1.1
2019-Dec-11 14:32 256 -1.1
2019-Dec-11 14:16 256 -1.1
2019-Dec-11 14:02 256 -1.7
2019-Dec-11 13:47 256 -1.7
2019-Dec-11 13:31 256 -1.7
2019-Dec-11 13:17 283 -1.7
2019-Dec-11 13:01 284 -1.7
2019-Dec-11 12:47 292 -1.7
2019-Dec-11 12:31 294 -1.7
2019-Dec-11 12:16 294 -1.7
2019-Dec-11 12:00 288 -1.7
2019-Dec-11 11:47 282 -1.7
2019-Dec-11 11:30 263 -1.7
2019-Dec-11 11:15 294 -1.7
2019-Dec-11 11:01 113 -1.7
2019-Dec-11 10:45 242 -1.1
2019-Dec-11 10:31 143 -1.1
2019-Dec-11 10:16 280 -1.1
2019-Dec-11 10:01 277 -0.6
2019-Dec-11 09:45 263 -0.6
2019-Dec-11 09:30 277 0 gusting 6 -0.6
2019-Dec-11 09:15 277 -0.6
2019-Dec-11 09:00 295 -0.0
2019-Dec-11 08:45 286 -0.0
2019-Dec-11 08:30 286 0 gusting 4 -0.0
2019-Dec-11 08:15 266 -0.0
2019-Dec-11 08:00 286 0 gusting 6 0.6
2019-Dec-11 07:49 269 1 gusting 7 0.6
2019-Dec-11 07:31 296 0 gusting 4 1.1
2019-Dec-11 07:17 330 0 gusting 6 1.7
2019-Dec-11 07:02 163 2.2
2019-Dec-11 06:48 275 2.2
2019-Dec-11 06:33 301 0 gusting 6 2.8
2019-Dec-11 06:16 286 0 gusting 6 2.8
2019-Dec-11 06:02 288 2.8
2019-Dec-11 05:46 107 3.3
2019-Dec-11 05:31 280 3.3
2019-Dec-11 05:16 267 1 gusting 8 3.3
2019-Dec-11 05:02 252 0 gusting 6 3.3
2019-Dec-11 04:47 255 0 gusting 6 3.9
2019-Dec-11 04:31 267 0 gusting 7 3.9
2019-Dec-11 04:16 294 2 gusting 6 4.4
2019-Dec-11 04:01 238 1 gusting 9 4.4
2019-Dec-11 03:45 283 0 gusting 4 4.4
2019-Dec-11 03:31 265 0 gusting 6 5.0
2019-Dec-11 03:15 277 1 gusting 6 5.6
2019-Dec-11 03:00 205 1 gusting 10 5.6
2019-Dec-11 02:45 242 1 gusting 8 6.1
2019-Dec-11 02:31 294 1 gusting 5 6.7
2019-Dec-11 02:15 292 0 gusting 6 6.7
2019-Dec-11 02:04 273 1 gusting 8 7.2
2019-Dec-11 01:47 244 1 gusting 7 7.8
2019-Dec-11 01:32 282 8.3
2019-Dec-11 01:18 310 1 gusting 6 8.3
2019-Dec-11 01:03 248 0 gusting 8 8.9
2019-Dec-11 00:47 292 2 gusting 9 9.4
2019-Dec-11 00:32 252 2 gusting 9 10.0
2019-Dec-11 00:17 246 3 gusting 13 11.1
2019-Dec-11 00:01 257 2 gusting 6 12.2
2019-Dec-10 23:47 242 1 gusting 7 12.2
2019-Dec-10 23:31 242 12.2
2019-Dec-10 23:16 244 1 gusting 6 12.2
2019-Dec-10 23:02 252 1 gusting 6 12.2
2019-Dec-10 22:45 213 2 gusting 8 12.8
2019-Dec-10 22:30 209 1 gusting 6 12.8
2019-Dec-10 22:16 219 0 gusting 7 12.8
2019-Dec-10 22:01 238 1 gusting 5 12.8
2019-Dec-10 21:45 247 0 gusting 7 12.8
2019-Dec-10 21:30 230 1 gusting 6 12.8
2019-Dec-10 21:15 217 2 gusting 7 12.8
2019-Dec-10 21:00 241 0 gusting 6 12.8
2019-Dec-10 20:45 242 1 gusting 6 12.8
2019-Dec-10 20:30 217 1 gusting 7 13.3
2019-Dec-10 20:16 209 2 gusting 7 13.3
2019-Dec-10 20:00 245 1 gusting 8 13.3
2019-Dec-10 19:46 260 2 gusting 8 13.9
2019-Dec-10 19:30 177 2 gusting 8 13.9
2019-Dec-10 19:15 243 1 gusting 10 14.4
2019-Dec-10 19:00 248 2 gusting 8 14.4
2019-Dec-10 18:45 236 3 gusting 10 14.4
2019-Dec-10 18:30 229 3 gusting 8 15.0
2019-Dec-10 18:15 263 4 gusting 7 15.0
2019-Dec-10 18:00 213 2 gusting 7 15.0
2019-Dec-10 17:45 259 1 gusting 9 15.6
2019-Dec-10 17:30 232 1 gusting 6 15.6
2019-Dec-10 17:15 236 4 gusting 10 15.6
2019-Dec-10 17:02 238 2 gusting 7 15.6
2019-Dec-10 16:48 250 0 gusting 11 15.6
2019-Dec-10 16:34 216 1 gusting 8 15.6
2019-Dec-10 16:16 329 1 gusting 7 15.6
2019-Dec-10 16:03 250 5 gusting 11 15.6
2019-Dec-10 15:46 250 6 gusting 12 15.0
2019-Dec-10 15:32 211 1 gusting 7 15.0
2019-Dec-10 15:16 198 3 gusting 11 15.0
2019-Dec-10 15:01 339 1 gusting 7 15.0
2019-Dec-10 14:31 223 3 gusting 8 14.4
2019-Dec-10 14:17 225 2 gusting 10 13.9
2019-Dec-10 14:01 239 3 gusting 12 13.9
2019-Dec-10 13:46 230 1 gusting 8 13.3
2019-Dec-10 13:34 241 3 gusting 7 12.8
2019-Dec-10 13:16 207 1 gusting 5 12.8
2019-Dec-10 13:01 136 1 gusting 7 12.8
2019-Dec-10 12:46 227 0 gusting 6 12.8
2019-Dec-10 12:31 214 2 gusting 6 12.8
2019-Dec-10 12:16 248 1 gusting 6 12.8
2019-Dec-10 12:01 236 0 gusting 7 12.8
2019-Dec-10 11:47 234 0 gusting 8 12.8
2019-Dec-10 11:31 235 2 gusting 11 12.8
2019-Dec-10 11:16 247 1 gusting 6 12.8
2019-Dec-10 11:00 223 2 gusting 6 12.8
2019-Dec-10 10:47 232 1 gusting 9 12.8
2019-Dec-10 10:30 215 2 gusting 9 12.8
2019-Dec-10 10:15 253 2 gusting 7 12.8
2019-Dec-10 10:00 253 1 gusting 13 12.8
2019-Dec-10 09:45 222 1 gusting 10 12.8
2019-Dec-10 09:30 240 3 gusting 10 13.3
2019-Dec-10 09:16 234 2 gusting 8 13.3
2019-Dec-10 09:00 250 2 gusting 6 13.3
2019-Dec-10 08:45 201 2 gusting 10 13.3
2019-Dec-10 08:30 226 2 gusting 13 13.3
2019-Dec-10 08:15 239 2 gusting 9 13.3
2019-Dec-10 08:00 189 3 gusting 10 13.3
2019-Dec-10 07:45 252 0 gusting 11 13.3
2019-Dec-10 07:30 164 3 gusting 10 13.3
2019-Dec-10 07:17 175 2 gusting 12 13.9
2019-Dec-10 07:02 203 2 gusting 9 13.9
2019-Dec-10 06:46 232 3 gusting 9 13.9
2019-Dec-10 06:32 232 4 gusting 13 13.9
2019-Dec-10 06:17 218 2 gusting 11 13.9
2019-Dec-10 06:01 221 3 gusting 8 13.9
2019-Dec-10 05:46 218 3 gusting 12 13.9
2019-Dec-10 05:31 246 2 gusting 12 13.9
2019-Dec-10 05:16 222 3 gusting 10 13.9
2019-Dec-10 05:02 225 2 gusting 9 13.9
2019-Dec-10 04:46 234 1 gusting 7 13.9
2019-Dec-10 04:31 225 4 gusting 10 13.9
2019-Dec-10 04:16 220 3 gusting 11 13.3
2019-Dec-10 04:01 185 3 gusting 10 13.3
2019-Dec-10 03:45 234 2 gusting 6 13.3
2019-Dec-10 03:31 246 2 gusting 8 12.8
2019-Dec-10 03:15 211 4 gusting 6 12.2
2019-Dec-10 03:00 229 1 gusting 7 12.2
2019-Dec-10 02:45 225 0 gusting 6 12.2
2019-Dec-10 02:30 217 1 gusting 7 11.7
2019-Dec-10 02:15 236 1 gusting 6 11.7
2019-Dec-10 02:01 203 2 gusting 6 11.7
2019-Dec-10 01:45 229 0 gusting 6 11.7
2019-Dec-10 01:30 220 1 gusting 6 11.7
2019-Dec-10 01:15 179 0 gusting 7 11.7
2019-Dec-10 01:00 228 1 gusting 4 11.7
2019-Dec-10 00:47 239 0 gusting 7 11.7
2019-Dec-10 00:32 225 1 gusting 5 11.7
2019-Dec-10 00:16 193 0 gusting 5 11.7
2019-Dec-10 00:02 262 1 gusting 5 11.7
2019-Dec-09 23:46 020 0 gusting 5 11.1
2019-Dec-09 23:31 180 1 gusting 6 11.1
2019-Dec-09 23:16 234 11.1
2019-Dec-09 23:01 185 0 gusting 5 11.1
2019-Dec-09 22:46 258 0 gusting 4 11.1
2019-Dec-09 22:31 253 11.1
2019-Dec-09 22:16 323 11.1
2019-Dec-09 22:00 242 1 gusting 4 11.1
2019-Dec-09 21:46 300 1 gusting 5 11.1
2019-Dec-09 21:31 245 1 gusting 7 11.1
2019-Dec-09 21:15 252 1 gusting 7 11.1
2019-Dec-09 21:01 161 2 gusting 8 11.1
2019-Dec-09 20:45 205 2 gusting 10 11.1
2019-Dec-09 20:30 284 3 gusting 8 11.1
2019-Dec-09 20:15 216 2 gusting 12 11.1
2019-Dec-09 20:00 160 2 gusting 6 11.1